[[{"header":{"parameterUnit":"m.s-1","parameterCategory":1,"la1":30.2991,"la2":30.254,"lo1":-89.0895,"lo2":-89.0444,"dy":0.0017,"dx":0.0017,"nx":28,"ny":28,"refTime":"2026-01-07T03:00:00:Z","depth":0,"parameterNumber":2,"parameterNumberName":"U-component_of_WINDS"},"data":[0,0,0,0,0,0,0,0,0,0,0,0,0,0,0,0,0,0,0,0,0,0,0,0,0,0,0,0,0,0,0,0,0,0,0,0,0,0,0,0,0,0,0,0,0,0,0,0,0,0,0,0,0,0,0,0,0,0,2.203,2.2032,0,2.2201,2.2203,2.2205,2.2194,2.2191,2.2189,2.2186,2.2371,2.2378,2.2386,0,0,0,0,0,0,0,0,0,0,0,0,0,2.1703,2.1709,2.203,2.2032,2.2034,2.2201,2.2203,2.2206,2.2194,2.2191,2.2188,2.2185,2.2369,2.2378,2.2386,0,0,0,0,0,0,0,0,0,0,0,0,0,2.1857,2.1711,2.203,2.2048,2.2052,2.22,2.2203,2.2206,2.2195,2.2191,2.2187,2.2184,2.2366,2.2377,2.2388,2.2532,0,0,2.2421,2.2426,0,0,0,0,0,0,0,0,2.1848,2.1869,2.2043,2.2047,2.2051,2.2172,2.2156,2.2316,2.2196,2.2141,2.2186,2.2182,2.2309,2.2324,2.2365,2.254,2.2548,2.2422,2.2429,2.2433,2.2436,0,0,0,0,0,0,0,2.1838,2.1862,2.2098,2.2046,2.2051,2.2052,2.2069,2.2186,2.2245,2.2145,2.2145,2.2165,2.231,2.2354,2.2369,2.2551,2.2422,2.2431,2.2438,2.2442,2.2856,2.286,0,0,0,0,0,0,2.1821,2.1853,2.2093,2.2103,2.1938,2.2061,2.208,2.2137,2.2243,2.2255,2.2168,2.2164,2.2338,2.2357,2.2376,2.2553,2.2433,2.2443,2.245,2.2852,2.2857,2.2862,0,0,0,0,0,0,2.1814,2.1843,2.2086,2.1978,2.2009,2.207,2.2134,2.2143,2.2187,2.226,2.2271,2.2202,2.2335,2.236,2.2493,2.2559,2.2448,2.2458,2.2846,2.2853,2.2859,2.2908,0,0,0,0,0,0,2.1805,2.184,2.1893,2.1979,2.2014,2.2197,2.2138,2.2149,2.2205,2.2201,2.2295,2.2307,2.2334,2.2477,2.2504,2.2572,2.2467,2.2841,2.2849,2.2857,2.2901,2.2915,2.2928,0,0,0,0,0,2.1793,2.1902,2.1896,2.1925,2.2081,2.2201,2.2221,2.2248,2.221,2.2265,2.2313,2.2304,2.2547,2.249,2.2521,2.2594,2.2837,2.2847,2.2857,2.2894,2.2912,2.2927,0,0,0,0,0,0,2.1825,2.1913,2.1908,2.2046,2.2116,2.2198,2.2269,2.2266,2.235,2.2343,2.2376,2.2397,2.2531,2.2575,2.251,2.274,2.2688,2.2704,2.2706,2.2723,2.2737,2.2724,2.2476,0,0,0,0,0,2.1848,2.1934,2.2007,2.2123,2.2158,2.2207,2.226,2.2275,2.2349,2.2379,2.2436,2.2512,2.2606,2.2667,2.2757,2.2906,2.2929,2.2972,2.2986,2.2996,2.3011,2.3096,2.3117,2.2894,2.2894,2.2894,0,0,2.1896,2.1955,2.2008,2.2131,2.2186,2.2278,2.2232,2.2331,2.2401,2.2396,2.2524,2.2568,2.2655,2.2797,2.2863,2.2839,2.3077,2.3009,2.3017,2.3026,2.3109,2.313,2.3148,2.2901,2.29,2.2899,0,0,2.2032,2.2084,2.2186,2.2242,2.2326,2.2358,2.2383,2.2467,2.2495,2.2623,2.2622,2.2707,2.2867,2.2929,2.2982,2.3142,2.3139,2.3171,2.3243,2.3326,2.3343,2.3359,2.3419,2.344,2.3185,2.3185,2.3185,0,2.2083,2.2218,2.224,2.234,2.2395,2.2392,2.2498,2.2552,2.2663,2.2703,2.2673,2.2875,2.2933,2.309,2.3129,2.3172,2.3204,2.3161,2.3338,2.3354,2.337,2.3427,2.3449,2.3189,2.3188,2.3188,2.3188,0,2.2278,2.2372,2.2445,2.2548,2.2612,2.2714,2.2756,2.2818,2.2827,2.2864,2.2997,2.3066,2.3171,2.3209,2.322,2.337,2.3353,2.333,2.3279,2.3394,2.3449,2.3471,2.3194,2.3193,2.3192,2.3191,0,0,2.2439,2.2552,2.2579,2.2627,2.2719,2.2794,2.2898,2.2998,2.3052,2.3128,2.3219,2.3354,2.3334,2.3394,2.3413,2.3485,2.3611,2.3455,2.3457,2.3483,2.3783,2.38,2.3825,2.3608,2.3612,2.3615,2.3776,0,2.2585,2.2765,2.2789,2.295,2.3039,2.3038,2.3129,2.3197,2.3235,2.3318,2.3361,2.3457,2.3423,2.3459,2.3531,2.358,2.3672,2.3569,2.3696,2.37,2.3675,2.3853,2.3871,2.402,2.3798,2.3801,2.3804,0,2.278,2.2859,2.3028,2.3109,2.3148,2.3228,2.3323,2.3401,2.3481,2.3503,2.357,2.358,2.3691,2.3633,2.3789,2.3719,2.3772,2.3805,2.3811,2.3826,2.376,2.3875,2.4068,2.4091,2.3837,2.3835,2.3832,0,2.2883,2.3032,2.3152,2.3193,2.329,2.3348,2.3392,2.3467,2.3526,2.3609,2.3649,2.3745,2.3799,2.3875,2.3912,2.3866,2.4067,2.4012,2.4092,2.4091,2.4136,2.4133,2.4342,2.4167,2.4167,2.4166,2.4166,0,2.3044,2.3149,2.32,2.3275,2.3393,2.342,2.3538,2.358,2.3647,2.3733,2.3738,2.382,2.3862,2.3951,2.3981,2.4107,2.4131,2.4155,2.4162,2.4156,2.4153,2.4192,2.4184,2.4172,2.4171,2.417,2.4169,0,2.318,2.3217,2.335,2.343,2.3453,2.3537,2.3608,2.3683,2.3719,2.3828,2.3855,2.3914,2.4019,2.4063,2.4192,2.4212,2.4358,2.4357,2.433,2.4333,2.4412,2.4405,2.4656,2.4691,2.4491,2.4492,2.4494,0,2.3281,2.3361,2.345,2.3506,2.3551,2.3641,2.3701,2.3733,2.3796,2.3892,2.3956,2.406,2.4145,2.4313,2.437,2.447,2.4472,2.4553,2.4487,2.4479,2.4476,2.4471,2.4481,2.4566,2.4568,2.4569,2.4571,0,2.3458,2.3473,2.3556,2.3648,2.3718,2.3793,2.3866,2.3912,2.3956,2.4027,2.4132,2.4198,2.4329,2.4434,2.4537,2.4586,2.4588,2.4591,2.4615,2.461,2.4592,2.4605,2.4365,2.4585,2.4584,2.4583,2.4582,2.4581,2.3581,2.3652,2.3726,2.382,2.3878,2.3946,2.402,2.4065,2.4152,2.426,2.4274,2.4388,2.4468,2.4606,2.466,2.4752,2.4732,2.4766,2.4776,2.4784,2.479,2.4576,2.4771,2.477,2.477,2.477,2.477,0,2.376,2.3807,2.3893,2.3993,2.4068,2.4059,2.4139,2.4204,2.4303,2.4376,2.4458,2.4582,2.4683,2.4748,2.4851,2.4913,2.4917,2.4939,2.4936,2.4948,2.4801,2.4771,2.4935,2.4935,2.4935,2.4935,2.4935,2.4935,2.3861,2.3982,2.4006,2.4157,2.4205,2.4314,2.4361,2.4425,2.4484,2.4619,2.4703,2.4743,2.4814,2.4923,2.5017,2.5034,2.5073,2.5098,2.5114,2.4975,2.4958,2.4942,2.4914,2.5105,2.5106,2.5253,2.5255,2.5256]},{"header":{"parameterUnit":"m.s-1","parameterCategory":1,"la1":30.2991,"la2":30.254,"lo1":-89.0895,"lo2":-89.0444,"dy":0.0017,"dx":0.0017,"nx":28,"ny":28,"refTime":"2026-01-07T03:00:00:Z","depth":0,"parameterNumber":3,"parameterNumberName":"V-component_of_WINDS"},"data":[0,0,0,0,0,0,0,0,0,0,0,0,0,0,0,0,0,0,0,0,0,0,0,0,0,0,0,0,0,0,0,0,0,0,0,0,0,0,0,0,0,0,0,0,0,0,0,0,0,0,0,0,0,0,0,0,0,0,1.7937,1.7938,0,1.8058,1.806,1.8061,1.8084,1.8083,1.8082,1.8082,1.8205,1.8209,1.8213,0,0,0,0,0,0,0,0,0,0,0,0,0,1.7725,1.7729,1.7937,1.7939,1.794,1.8058,1.806,1.8061,1.8085,1.8083,1.8082,1.8081,1.8203,1.8208,1.8213,0,0,0,0,0,0,0,0,0,0,0,0,0,1.7829,1.773,1.7937,1.7966,1.797,1.8058,1.806,1.8062,1.8085,1.8083,1.8082,1.8081,1.8202,1.8208,1.8214,1.8281,0,0,1.8233,1.8236,0,0,0,0,0,0,0,0,1.7823,1.7837,1.796,1.7964,1.7968,1.8055,1.803,1.8135,1.8085,1.8041,1.8082,1.808,1.8156,1.8166,1.8192,1.8287,1.8292,1.8233,1.8237,1.824,1.8242,0,0,0,0,0,0,0,1.7816,1.7831,1.7985,1.7962,1.7967,1.7973,1.7986,1.805,1.8105,1.8045,1.8047,1.8061,1.8158,1.8185,1.8195,1.8294,1.8233,1.8239,1.8243,1.8245,1.8451,1.8453,0,0,0,0,0,0,1.7803,1.7825,1.7981,1.7989,1.7891,1.7978,1.7992,1.8028,1.8104,1.8115,1.8062,1.8061,1.8175,1.8187,1.8199,1.8284,1.824,1.8246,1.8249,1.8449,1.8451,1.8453,0,0,0,0,0,0,1.7799,1.7817,1.7976,1.7908,1.7928,1.7983,1.8023,1.8032,1.8059,1.8117,1.8127,1.808,1.8175,1.819,1.8261,1.8288,1.8248,1.8254,1.8447,1.845,1.8452,1.8453,0,0,0,0,0,0,1.7793,1.7815,1.7842,1.7908,1.7932,1.8036,1.8025,1.8035,1.807,1.8071,1.8137,1.8147,1.8175,1.8251,1.8267,1.8296,1.8259,1.8445,1.8448,1.8451,1.845,1.8455,1.8459,0,0,0,0,0,1.7785,1.7836,1.7843,1.7862,1.7966,1.8038,1.8051,1.8083,1.8072,1.8099,1.8136,1.8145,1.8282,1.8258,1.8276,1.8307,1.8443,1.8447,1.8451,1.8449,1.8454,1.8459,0,0,0,0,0,0,1.7772,1.7846,1.7854,1.7928,1.7977,1.8042,1.8076,1.8088,1.814,1.8138,1.8175,1.819,1.8258,1.829,1.8262,1.8377,1.8362,1.837,1.8354,1.836,1.8364,1.8355,1.8264,0,0,0,0,0,1.7777,1.783,1.7891,1.7951,1.7975,1.8021,1.8054,1.8074,1.8126,1.8146,1.8189,1.8238,1.8292,1.8328,1.8381,1.8455,1.847,1.8485,1.8489,1.8492,1.8499,1.8541,1.8549,1.8466,1.8466,1.8466,0,0,1.779,1.7837,1.7867,1.795,1.799,1.8043,1.8039,1.8095,1.8135,1.8155,1.8224,1.8257,1.8314,1.8387,1.8421,1.8415,1.8525,1.8497,1.8499,1.8504,1.8546,1.8553,1.856,1.8469,1.8468,1.8468,0,0,1.784,1.788,1.7935,1.7975,1.8036,1.8066,1.8079,1.8143,1.8166,1.8236,1.8252,1.83,1.8393,1.8433,1.8466,1.8531,1.8541,1.8548,1.857,1.861,1.8617,1.8623,1.8647,1.8656,1.8554,1.8554,1.8554,0,1.7848,1.7929,1.7962,1.8018,1.8054,1.8074,1.813,1.8167,1.8242,1.8266,1.8258,1.8376,1.8416,1.8499,1.8515,1.854,1.8557,1.8541,1.8613,1.862,1.8626,1.865,1.8658,1.8554,1.8554,1.8554,1.8554,0,1.7936,1.7992,1.8029,1.8101,1.8141,1.8197,1.8238,1.8274,1.8291,1.8322,1.8394,1.8442,1.8506,1.8527,1.8544,1.8613,1.8607,1.8606,1.8592,1.8634,1.8657,1.8666,1.8555,1.8555,1.8555,1.8554,0,0,1.7982,1.8072,1.8085,1.8118,1.8186,1.823,1.8287,1.835,1.8381,1.8431,1.848,1.8558,1.8557,1.8595,1.8616,1.8651,1.8701,1.8646,1.8648,1.8655,1.8781,1.8783,1.8793,1.8708,1.8709,1.8711,1.8777,0,1.8041,1.8143,1.8174,1.826,1.8313,1.8332,1.8382,1.8429,1.8459,1.8508,1.8542,1.8597,1.8592,1.8614,1.865,1.8687,1.8727,1.8683,1.8754,1.8756,1.874,1.8805,1.8806,1.8866,1.8786,1.8787,1.8788,0,1.8124,1.8177,1.8268,1.833,1.8353,1.8397,1.8458,1.8504,1.8558,1.8577,1.8619,1.8637,1.8697,1.8679,1.8762,1.8731,1.8762,1.8784,1.8788,1.8796,1.8775,1.8816,1.8886,1.8895,1.8803,1.8802,1.8801,0,1.815,1.8243,1.831,1.8338,1.8412,1.8442,1.8474,1.8527,1.8563,1.8615,1.8639,1.8698,1.873,1.8775,1.8808,1.8792,1.8889,1.8873,1.8907,1.8907,1.8928,1.8926,1.9005,1.8945,1.8945,1.8945,1.8945,0,1.8214,1.8269,1.8323,1.8364,1.8427,1.8461,1.8522,1.8555,1.8602,1.865,1.867,1.8714,1.8755,1.8805,1.8832,1.8897,1.8911,1.8929,1.8936,1.8928,1.8926,1.895,1.8947,1.8947,1.8947,1.8946,1.8946,0,1.8253,1.8292,1.8366,1.843,1.8447,1.8491,1.8545,1.8586,1.8617,1.8678,1.8694,1.8743,1.8803,1.884,1.8916,1.8934,1.9006,1.9011,1.8988,1.8992,1.9024,1.9021,1.9121,1.9137,1.9066,1.9066,1.9067,0,1.8292,1.8335,1.8404,1.8437,1.847,1.8524,1.8561,1.8597,1.8634,1.8699,1.8732,1.8793,1.8844,1.8939,1.8981,1.904,1.9047,1.9078,1.9056,1.9047,1.9049,1.9046,1.9051,1.9082,1.9082,1.9083,1.9083,0,1.8357,1.8374,1.8427,1.8486,1.853,1.8579,1.8627,1.8653,1.8697,1.8739,1.8801,1.884,1.8918,1.8979,1.9041,1.9074,1.9086,1.909,1.9101,1.9094,1.908,1.909,1.9,1.9088,1.9087,1.9087,1.9087,1.9086,1.8398,1.8438,1.8492,1.8551,1.8591,1.8636,1.8678,1.8714,1.8766,1.8833,1.8851,1.8915,1.8968,1.9053,1.9087,1.9139,1.9134,1.915,1.9155,1.9158,1.916,1.9071,1.915,1.915,1.915,1.915,1.915,0,1.8465,1.8501,1.8555,1.8622,1.8668,1.8675,1.873,1.8767,1.8824,1.8873,1.8923,1.8994,1.9053,1.91,1.9161,1.9193,1.92,1.9208,1.9207,1.9214,1.9159,1.9144,1.9201,1.9201,1.9201,1.9201,1.9201,1.9201,1.8506,1.8573,1.8597,1.8684,1.872,1.8784,1.8815,1.8856,1.8895,1.8974,1.9024,1.9054,1.9102,1.9167,1.9221,1.9233,1.9255,1.9262,1.9276,1.9224,1.9218,1.9213,1.9199,1.9266,1.9266,1.9327,1.9327,1.9328]}]]